Regional Weather Roundup
Issued by NWS

Home | Current Version | Previous Version | Graphics & Text | Print | Product List | Glossary Off
Versions: 1 2 3 4 5 6 7 8 9 10 11 12 13 14 15 16 17 18 19 20 21 22 23 24 25 26 27 28 29 30 31 32 33 34 35 36 37 38 39 40 41 42 43 44 45 46 47 48 49 50

000
ASUS43 KMPX 241501
RWRMN
WEATHER ROUNDUP FOR MINNESOTA
NATIONAL WEATHER SERVICE TWIN CITIES/CHANHASSEN MN
1000 AM CDT WED MAY 24 2017


NOTE: "FAIR" INDICATES FEW OR NO CLOUDS BELOW 12,000 FEET WITH NO
SIGNIFICANT WEATHER AND/OR OBSTRUCTIONS TO VISIBILITY. N/A MEANS
CURRENT SKY AND/OR WEATHER CONDITIONS ARE NOT AVAILABLE.

MNZ060>063-068>070-241600-
   Twin Cities Metro

CITY           SKY/WX    TMP DP  RH WIND       PRES   REMARKS
TWIN CITIES    CLOUDY    53  44  71 N10       29.78F
ST PAUL        CLOUDY    53  46  77 NE6       29.78F
CRYSTAL        CLOUDY    51  42  71 NE8       29.78S
BLAINE         PTSUNNY   54  45  71 NE9       29.78F
LAKEVILLE      CLOUDY    50  45  81 N6        29.77S
EDEN PRAIRIE   CLOUDY    52  44  74 N8        29.77F
SOUTH ST PAUL  CLOUDY    53  45  73 N7        29.77F
LAKE ELMO      CLOUDY    54  46  76 N9        29.78F
$$
MNZ001>005-007-008-013>017-022>024-027-028-241600-
   Northwest Minnesota

CITY           SKY/WX    TMP DP  RH WIND       PRES   REMARKS
BEMIDJI        SUNNY     55  40  58 E8        29.82F
HALLOCK        SUNNY     61  43  51 S15       29.79F
ROSEAU         SUNNY     61  45  55 S7        29.82F
WARROAD        SUNNY     57  46  67 E6        29.83F
CROOKSTON      SUNNY     59  43  55 S8        29.81F
FOSSTON        SUNNY     55  48  76 E6        29.82F
DETROIT LAKES  MOSUNNY   55  43  62 SE8       29.82F
MOORHEAD       SUNNY     55  46  71 CALM      29.81F
PARK RAPIDS    MOSUNNY   57  40  52 CALM      29.81F
MAHNOMEN       FAIR      56  42  58 SE8       29.81F
$$
MNZ006-009>011-018-025>026-241600-
   North Central Minnesota

CITY           SKY/WX    TMP DP  RH WIND       PRES   REMARKS
BAUDETTE       SUNNY     58  42  55 E6        29.83F
FLAG ISLAND    SUNNY     52  45  76 S6        29.82F
INTL FALLS     SUNNY     58  38  47 E8        29.84F
WASKISH        MOSUNNY   57  43  58 SE8       29.83F
BIG FORK       SUNNY     57  41  54 SE6       29.83F
LONGVILLE      SUNNY     55  41  58 E7        29.82F
GRAND RAPIDS   PTSUNNY   54  42  64 E9G16     29.84F
CRANE LAKE     SUNNY     55  43  62 N6        29.86F
COOK           MOSUNNY   55  43  62 E8        29.84F
WALKER         FAIR      53  42  65 NE6       29.83F
$$
MNZ012-019>021-037-241600-
   Northeast Minnesota

CITY           SKY/WX    TMP DP  RH WIND       PRES   REMARKS
DULUTH         PTSUNNY   50  44  80 E10       29.83S
ELY            CLOUDY    54  41  62 N3        29.84F
HIBBING        PTSUNNY   54  41  61 E9        29.83F
EVELETH        PTSUNNY   55  38  53 E7        29.84F
DULUTH HARBOR  CLOUDY    46  43  87 NE9       29.85S
TWO HARBORS    PTSUNNY   55  45  67 E8        29.82S
GRAND MARAIS     N/A     49  39  68 NE7       29.84F
G MARAIS ARPRT PTSUNNY   54  37  54 E9        29.84F
$$
MNZ029>031-032-039>041-046>048-054>057-064-241600-
   West Central Minnesota

CITY           SKY/WX    TMP DP  RH WIND       PRES   REMARKS
FERGUS FALLS   MOSUNNY   55  45  67 S3        29.79F
WHEATON        CLOUDY    52  46  82 E3        29.83F
MORRIS         PTSUNNY   54  46  76 NE5       29.81S
ALEXANDRIA     CLOUDY    54  44  69 E7        29.82S
ELBOW LAKE     CLOUDY    53  46  78 E6        29.82F
WADENA         PTSUNNY   54  45  71 SE9       29.81F
GLENWOOD       PTSUNNY   54  46  76 NE8       29.81S
BENSON         CLOUDY    54  46  76 NE3       29.82F
ORTONVILLE     CLOUDY    54  46  76 CALM      29.81F
MADISON        CLOUDY    55  48  76 CALM      29.81F
WILLMAR        PTSUNNY   55  46  71 E10       29.80F
$$
MNZ033>034-036-042>043-049>051-058-059-241600-
   Central Minnesota

CITY           SKY/WX    TMP DP  RH WIND       PRES   REMARKS
ST CLOUD       CLOUDY    53  45  74 NE10      29.79F
SAUK CENTRE    PTSUNNY   52  43  70 NE7       29.80F
PAYNESVILLE    PTSUNNY   53  44  70 E6        29.80F
AITKIN         CLOUDY    52  43  71 NE13      29.80F
PINE RIVER     PTSUNNY   55  45  67 E9        29.85F
BRAINERD       PTSUNNY   55  44  66 NE12      29.81F
STAPLES        PTSUNNY   54  41  62 E6        29.81F
LONG PRAIRIE   PTSUNNY   52  41  66 N8        29.81S
LITTLE FALLS   CLOUDY    52  43  71 E7        29.80F
LITCHFIELD     CLOUDY    54  46  76 NE7       29.79F
BUFFALO        CLOUDY    51  43  73 N9        29.80S
MAPLE LAKE     CLOUDY    53  46  77 NE9       29.80F
HUTCHINSON     PTSUNNY   53  46  77 N10G18    29.79F
$$
MNZ037-044-045-052-053-241600-
   East Central Minnesota

CITY           SKY/WX    TMP DP  RH WIND       PRES   REMARKS
PRINCETON      CLOUDY    54  46  76 NE8       29.80F
MORA           CLOUDY    50  43  76 NE7       29.82S
CAMBRIDGE      CLOUDY    55  45  67 NE6       29.77F
RUSH CITY      CLOUDY    53  45  76 NE7       29.80F
MOOSE LAKE     CLOUDY    52  43  71 NE7       29.80F
HINCKLEY       CLOUDY    54  45  71 NE7       29.80F
CLOQUET        CLOUDY    52  41  66 E14G20    29.82F
MCGREGOR       PTSUNNY   52  45  76 NE9G17    29.82F
$$
MNZ071>073-080-081-089-090-097-098-241600-
   Southwest Minnesota

CITY           SKY/WX    TMP DP  RH WIND       PRES   REMARKS
MONTEVIDEO     CLOUDY    55  50  82 E3        29.81S
CANBY          CLOUDY    54  49  83 CALM      29.82S
MARSHALL       CLOUDY    52  47  83 N5        29.80F
REDWOOD FALLS  MOSUNNY   55  44  66 NE10      29.78F
OLIVIA         MOSUNNY   55  45  67 NE9       29.78F
PIPESTONE      CLOUDY    52  43  71 N5        29.79F
WINDOM         MOSUNNY   50  45  81 N7        29.78F
WORTHINGTON    CLOUDY    49  45  86 N8        29.79F
JACKSON        CLOUDY    50  45  81 N10       29.78F
TRACY          CLOUDY    51  47  87 N6        29.79F
SLAYTON        CLOUDY    49  45  86 N9        29.80F
$$
MNZ065>067-074>077-082>085-091>093-241600-
   South Central Minnesota

CITY           SKY/WX    TMP DP  RH WIND       PRES   REMARKS
NEW ULM        CLOUDY    52  45  76 NE8       29.77F
ST JAMES       CLOUDY    52  46  82 N9        29.78F
FAIRMONT       CLOUDY    49  46  90 N8        29.77F
GLENCOE        CLOUDY    51  47  84 NE8       29.78S
FARIBAULT      CLOUDY    52  46  82 N8        29.77F
OWATONNA       CLOUDY    48  45  87 N6        29.76F
WASECA         CLOUDY    50  46  87 N10       29.78S
ALBERT LEA     CLOUDY    52  48  87 N12       29.75S
$$
MNZ078>079-086>088-094>096-241600-
   Southeast Minnesota

CITY           SKY/WX    TMP DP  RH WIND       PRES   REMARKS
ROCHESTER      CLOUDY    50  47  89 N12       29.74F
RED WING       PTSUNNY   54  45  71 NE5       29.75F
STANTON        CLOUDY    52  46  80 N6        29.75F
DODGE CENTER   CLOUDY    48  46  93 N7        29.74F
WINONA         CLOUDY    54  45  71 NE7       29.73S
AUSTIN         CLOUDY    50  46  87 N8        29.73F
PRESTON        CLOUDY    50  46  84 N12       29.72S
$$
ABBREVIATIONS USED IN REMARKS
   TC - TEMPERATURES IN CELSIUS
  WCI - WIND CHILL INDEX
   HX - HEAT INDEX
  VSB - VISIBILITY
$$



USA.gov is the U.S. government's official web portal to all federal, state and local government web resources and services.